{"data":{"norad_id":37948,"intl_designator":"2011-073A","name":"BEIDOU-2 IGSO-5 (C10)","alt_names":[],"object_type":"PAYLOAD","status":"ACTIVE","operator":null,"country":"PRC","launch_date":"2011-12-01","launch_site_code":"XICLF","launch_vehicle":null,"mission":null,"orbit_class":"UNKNOWN","rcs_meters":12.5893,"size_class":null,"mass_kg":null,"dimensions":null,"purposes":["comms","nav"],"wikipedia_slug":null,"has_3d_model":false,"image_url":null,"decayed_at":null,"tle_current":{"epoch":"2026-05-24T20:12:21.568320Z","epoch_age_seconds":99192,"freshness":"FRESH","line1":"1 37948U 11073A   26144.84191630 -.00000227  00000+0  00000+0 0  9992","line2":"2 37948  47.7216 271.8324 0112230 220.7905 144.7369  1.00254466 52909","mean_motion":1.00254466,"eccentricity":0.011223,"inclination_deg":47.7216,"raan_deg":271.8324,"arg_perigee_deg":220.7905,"mean_anomaly_deg":144.7369,"bstar":0,"rev_number":5290,"period_min":1436.3449903568,"perigee_km":35318.181520585,"apogee_km":36264.720088446,"semimajor_km":42169.587804515,"source":"CELESTRAK","updated_at":"2026-05-25T13:38:24.210191Z"}}}